Location: Newark
(4.6381°N, 74.0644°W)
Time: 00:04:03
(UTC+00:00)

Hubble Space Telescope - Visible Passes

Search period start: 21 October 2019 00:00
Search period end: 31 October 2019 00:00
Orbit: 536 x 540 km, 28.5° (Epoch: 20 October)

Date Brightness Start Highest point End Pass type
(mag) Time Alt. Az. Time Alt. Az. Time Alt. Az.
21 Oct 3.3 09:07:15 12° S 09:09:36 17° SSE 09:12:22 10° ESE visible
22 Oct 2.7 08:58:07 22° S 08:59:03 24° SSE 09:02:24 10° E visible
23 Oct 2.3 08:49:00 32° SE 08:49:00 32° SE 08:52:13 10° E visible
24 Oct 2.8 08:39:51 26° E 08:39:51 26° E 08:41:54 10° ENE visible
24 Oct 2.0 10:15:36 10° W 10:19:06 26° NNW 10:22:35 10° NNE visible
25 Oct 3.5 08:30:37 16° ENE 08:30:37 16° ENE 08:31:27 10° ENE visible
25 Oct 2.3 10:06:00 12° WNW 10:08:34 20° NNW 10:11:37 10° NNE visible
26 Oct 2.7 09:56:41 13° NW 09:58:05 15° NNW 10:00:29 10° N visible
27 Oct 2.9 09:47:15 11° NNW 09:47:36 11° NNW 09:48:59 10° N visible
